TIME,�g��[���C[MJ/h],����[MJ/h],�Ɩ�[MJ/h],�~�[[MJ/h],�①��[MJ/h],��y���[MJ/h],�Ǝ��q��[MJ/h],���̑�[MJ/h],�����G�l���M�[[MJ/h]
2004/5/1 0:00,0,0,1.3589,0.0108,0.6633,0.1745,0.2635,0.5977,0
2004/5/1 0:15,0,0,1.7019,0.0109,0.433,0.1992,0.2827,0.4766,0
2004/5/1 0:30,0,0,0.6284,0.0109,0.5548,0.383,0.1796,0.4353,0
2004/5/1 0:45,0,0,0.1218,0.0109,0.7134,0.1767,0.3534,0.4928,0
2004/5/1 1:00,0,0,0.0924,0.0109,0.5782,0.1768,0.1824,0.4908,0
2004/5/1 1:15,0,0,0.0916,0.0109,0.4445,0.1747,0.2719,0.4938,0
2004/5/1 1:30,0,0,0.0914,0.0108,0.8068,0.1747,0.2654,0.4811,0
2004/5/1 1:45,0,0,0.0929,0.0109,0.7101,0.1751,0.1829,0.4833,0
2004/5/1 2:00,0,0,0.094,0.0109,0.1555,0.1757,0.2756,0.4916,0
2004/5/1 2:15,0,0,0.0937,0.0109,0.7338,0.1758,0.2683,0.4876,0
2004/5/1 2:30,0,0,0.0935,0.0109,0.7065,0.176,0.1833,0.4787,0
2004/5/1 2:45,0,0,0.0946,0.0109,0.3485,0.177,0.2713,0.4614,0
2004/5/1 3:00,0,0,0.0945,0.0111,0.6849,0.1763,0.2693,0.4725,0
2004/5/1 3:15,0,0,0.094,0.0109,0.7936,0.1755,0.1833,0.4965,0
2004/5/1 3:30,0,0,0.0937,0.0108,0.436,0.1734,0.2723,0.4795,0
2004/5/1 3:45,0,0,0.0936,0.0108,1.0666,0.1738,0.2667,0.4684,0
2004/5/1 4:00,0,0,0.094,0.0107,0.9608,0.1734,0.1848,0.487,0
2004/5/1 4:15,0,0,0.0943,0.0109,0.5404,0.1752,0.3555,0.4683,0
2004/5/1 4:30,0,0,0.0937,0.0109,0.7379,0.1751,0.1855,0.501,0
2004/5/1 4:45,0,0,0.094,0.0108,0.7721,0.1751,0.186,0.4962,0
2004/5/1 5:00,0,0,0.0942,0.0109,0.4059,0.1751,0.36,0.4853,0
2004/5/1 5:15,0,0,0.0937,0.0108,0.5603,0.1727,0.1853,0.5124,0
2004/5/1 5:30,0,0,0.0926,0.0107,0.6332,0.1714,0.2772,0.4905,0
2004/5/1 5:45,0,0,0.0917,0.0108,0.3491,0.1716,0.2678,0.4523,0
2004/5/1 6:00,0,0,0.0923,0.0107,0.6581,0.1699,0.1863,0.4425,0
2004/5/1 6:15,0,0,0.0912,0.0105,0.6473,0.1704,0.2706,0.4745,0
2004/5/1 6:30,0,0,0.0926,0.0108,0.3757,0.1716,0.2713,0.4524,0
2004/5/1 6:45,0,0,0.0936,0.0108,0.8091,0.1712,0.1845,0.4703,0
2004/5/1 7:00,0,0,0.0943,0.0108,0.6314,0.2388,0.2722,0.4805,0
2004/5/1 7:15,0,0,0.0959,0.0107,0.2118,0.3982,0.265,0.4791,0
2004/5/1 7:30,0,0,0.0056,0.5142,0.7144,0.399,0.1773,1.5515,0
2004/5/1 7:45,0,0,0,0.4981,0.6767,0.4003,0.3876,0.7854,0
2004/5/1 8:00,0,0,0,0.0107,0.3714,0.4026,0.2606,0.6431,0
2004/5/1 8:15,0,0,0.0078,0.0108,0.7311,0.4026,0.5089,0.4991,0
2004/5/1 8:30,0,0,0.0724,0.0109,0.5116,0.4023,0.7933,0.4899,0
2004/5/1 8:45,0,0,0.1765,0.0109,0.3437,0.7269,0.9012,0.4707,0
2004/5/1 9:00,0,0,0.1518,0.0108,0.7309,0.9022,1.3182,0.4683,0
2004/5/1 9:15,0,0,0,0.0108,0.6902,0.8987,0.1557,0.5279,0
2004/5/1 9:30,0,0,0,0.0109,0.3956,0.6602,0.2436,0.5256,0
2004/5/1 9:45,0,0,0,0.0108,0.7129,0.3982,0.2445,0.5109,0
2004/5/1 10:00,0,0,1.0871,0.0111,0.7708,0.5616,0.1462,0.5852,0
2004/5/1 10:15,0,0,0.0004,0.0109,0.4549,0.932,0.236,0.8277,0
2004/5/1 10:30,0,0,0,0.0109,0.3961,0.738,0.2326,3.7007,0
2004/5/1 10:45,0,0,0,0.0109,0.7461,0.7426,0.2362,1.7775,0
2004/5/1 11:00,0,0,1.4738,0.0108,0.6954,0.4944,0.2239,0.6604,0
2004/5/1 11:15,0,0,0,0.0108,0.6481,0.4632,0.143,0.4589,0
2004/5/1 11:30,0,0,0,0.0109,0.3954,0.4647,0.2305,0.4249,0
2004/5/1 11:45,0,0,0,0.0109,0.8181,0.4617,0.2264,0.4408,0
2004/5/1 12:00,0,0,0,0.0108,0.7597,0.4902,0.1421,0.4409,0
2004/5/1 12:15,0,0,0,0.0111,0.6165,0.4634,0.2232,0.4559,0
2004/5/1 12:30,0,0,0,0.4334,0.667,0.4756,0.2352,0.5079,0
2004/5/1 12:45,0,0,0.0256,0.0109,0.8103,0.4759,0.1489,0.4399,0
2004/5/1 13:00,0,0,0,0.0109,0.7605,0.4635,0.2305,0.4517,0
2004/5/1 13:15,0,0,0,0.0108,0.7348,0.4595,0.146,0.4373,0
2004/5/1 13:30,0,0,0,0.0109,0.7092,0.5265,0.2278,0.4512,0
2004/5/1 13:45,0,0,0.0107,0.0108,0.9861,0.6561,0.235,0.4383,0
2004/5/1 14:00,0,0,0,0.0108,0.8568,0.6208,0.1462,0.437,0
2004/5/1 14:15,0,0,0,0.0109,0.8304,0.5249,0.2294,0.4389,0
2004/5/1 14:30,0,0,0,0.0108,0.8078,0.6176,0.2514,0.4552,0
2004/5/1 14:45,0,0,0,0.0109,0.7965,0.7419,0.148,0.4285,0
2004/5/1 15:00,0,0,0,0.0109,0.688,0.7394,0.319,0.4264,0
2004/5/1 15:15,0,0,0,0.0109,0.5881,0.7426,0.1483,0.4468,0
2004/5/1 15:30,0,0,0,0.0109,0.8866,0.737,0.1463,0.435,0
2004/5/1 15:45,0,0,0,0.0109,0.7121,0.3279,0.2334,0.464,0
2004/5/1 16:00,0,0,0.0003,0.0109,0.4825,0.2403,0.2392,0.4637,0
2004/5/1 16:15,0,0,0.2483,0.0109,0.8038,0.235,0.1544,0.4552,0
2004/5/1 16:30,0,0,0.0785,0.0109,0.5057,0.1976,0.2529,0.4572,0
2004/5/1 16:45,0,0,0.0419,0.0109,0.7299,0.1699,0.147,0.4802,0
2004/5/1 17:00,0,0,0,0.0107,0.4955,0.1712,0.2246,0.4447,0
2004/5/1 17:15,0,0,0,0.0108,0.8404,0.1682,0.257,0.4509,0
2004/5/1 17:30,0,0,0,0.0107,0.6839,0.1682,0.1444,0.4595,0
2004/5/1 17:45,0,0,0,0.0108,0.4674,0.1711,0.3218,0.452,0
2004/5/1 18:00,0,0,0,0.0108,0.5184,0.1752,0.1456,0.4604,0
2004/5/1 18:15,0,0,0,0.0108,0.8431,0.1737,0.1463,0.4599,0
2004/5/1 18:30,0,0,0,0.0108,0.6142,0.1755,0.2326,0.4732,0
2004/5/1 18:45,0,0,0,0.0108,0.4938,0.1764,0.231,0.4909,0
2004/5/1 19:00,0,0,0,0.0109,0.7276,0.2127,0.1472,0.4869,0
2004/5/1 19:15,0,0,0,0.0108,0.7523,0.1763,0.23,0.4732,0
2004/5/1 19:30,0,0,0,0.0109,0.4676,0.1765,0.2334,0.4624,0
2004/5/1 19:45,0,0,0,0.0109,0.6124,0.1776,0.1495,0.4818,0
2004/5/1 20:00,0,0,0,0.0108,0.7659,0.1767,0.2426,0.4965,0
2004/5/1 20:15,0,0,0.3434,0.0109,0.5125,0.2739,0.1516,0.6824,0
2004/5/1 20:30,0,0,0.4226,0.0108,0.6124,0.4031,0.2388,0.5815,0
2004/5/1 20:45,0,0,0.5659,0.0109,0.5875,0.4026,0.2339,0.7095,0
2004/5/1 21:00,0,0,0.5494,0.0109,0.3908,0.4003,0.1528,0.7707,0
2004/5/1 21:15,0,0,0.5367,0.0109,0.732,0.3711,0.1516,0.7559,0
2004/5/1 21:30,0,0,0.805,0.0109,0.6088,0.5083,0.3311,0.9775,0
2004/5/1 21:45,0,0,0.8597,0.0112,0.4416,1.0377,0.1551,0.9704,0
2004/5/1 22:00,0,0,0.5338,0.0108,0.8126,1.0323,0.1528,0.972,0
2004/5/1 22:15,0,0,0.5331,0.0109,0.5999,0.8751,0.3244,0.9769,0
2004/5/1 22:30,0,0,0.5329,0.0109,0.2756,0.8721,0.1545,0.9742,0
2004/5/1 22:45,0,0,0.5324,0.0109,0.6991,0.8633,0.1557,1.0175,0
2004/5/1 23:00,0,0,1.1192,0.0111,0.4817,0.3948,0.3247,0.6931,0
2004/5/1 23:15,0,0,0.6173,0.0107,0.5616,0.3659,0.1549,0.6238,0
2004/5/1 23:30,0,0,1.2149,0.0107,0.706,0.375,0.1548,0.5877,0
2004/5/1 23:45,0,0,1.3369,0.0109,0.4262,0.4008,0.2637,0.5416,0
2004/5/2 0:00,0,0,0.6533,0.0109,0.7658,0.4044,0.2406,0.5659,0
2004/5/2 0:15,0,0,0.2772,0.0109,0.6373,0.2022,0.2484,0.5993,0
2004/5/2 0:30,0,0,0,0.0111,0.8526,0.1765,0.304,0.5319,0
2004/5/2 0:45,0,0,0,0.0108,0.9874,0.174,0.1489,0.503,0
2004/5/2 1:00,0,0,0,0.0109,0.5759,0.1735,0.343,0.509,0
2004/5/2 1:15,0,0,0,0.0108,0.6823,0.1732,0.1488,0.5217,0
2004/5/2 1:30,0,0,0,0.0109,0.7138,0.1742,0.3308,0.5056,0
2004/5/2 1:45,0,0,0,0.0111,0.429,0.1755,0.1515,0.4935,0
2004/5/2 2:00,0,0,0,0.0109,0.5325,0.1758,0.1503,0.5221,0
2004/5/2 2:15,0,0,0,0.0108,0.4653,0.1731,0.3177,0.5072,0
2004/5/2 2:30,0,0,0,0.0108,0.5498,0.1728,0.1508,0.5183,0
2004/5/2 2:45,0,0,0,0.0108,0.6009,0.1741,0.2341,0.5016,0
2004/5/2 3:00,0,0,0,0.0108,0.3302,0.1737,0.2362,0.4774,0
2004/5/2 3:15,0,0,0,0.0108,0.5232,0.1727,0.1525,0.5289,0
2004/5/2 3:30,0,0,0,0.0108,0.3948,0.1735,0.3205,0.5109,0
2004/5/2 3:45,0,0,0,0.0109,0.6185,0.1742,0.1524,0.504,0
2004/5/2 4:00,0,0,0,0.0109,0.5671,0.1729,0.2439,0.5111,0
2004/5/2 4:15,0,0,0,0.0108,0.4258,0.1737,0.2418,0.5046,0
2004/5/2 4:30,0,0,0,0.0109,0.5334,0.174,0.1538,0.5171,0
2004/5/2 4:45,0,0,0,0.0109,0.3331,0.1742,0.2428,0.4931,0
2004/5/2 5:00,0,0,0,0.0108,0.6708,0.1738,0.2386,0.5239,0
2004/5/2 5:15,0,0,0,0.0109,0.4771,0.1738,0.1567,0.5142,0
2004/5/2 5:30,0,0,0,0.0109,0.4366,0.1735,0.3354,0.5255,0
2004/5/2 5:45,0,0,0,0.0109,0.5135,0.1735,0.1554,0.5158,0
2004/5/2 6:00,0,0,0,0.0109,0.4208,0.1732,0.247,0.4905,0
2004/5/2 6:15,0,0,0,0.0108,0.6972,0.1725,0.2436,0.4985,0
2004/5/2 6:30,0,0,0,0.0109,0.3033,0.1725,0.1583,0.4974,0
2004/5/2 6:45,0,0,0,0.0108,0.5092,0.2681,0.252,0.5286,0
2004/5/2 7:00,0,0,0.0805,0.0108,0.4726,0.4389,0.2563,0.9861,0
2004/5/2 7:15,0,0,0.0023,0.5878,0.5712,0.402,0.2691,2.9488,0
2004/5/2 7:30,0,0,0,0.4882,0.5783,0.4044,0.2843,1.4509,0
2004/5/2 7:45,0,0,0,0.0108,0.2367,0.4239,0.2498,0.6398,0
2004/5/2 8:00,0,0,0.0281,0.0108,0.724,0.4753,0.2585,0.5573,0
2004/5/2 8:15,0,0,0.8173,0.0109,0.3681,0.4765,0.2483,0.5223,0
2004/5/2 8:30,0,0,0.1623,0.0108,0.6641,0.4687,0.271,0.5124,0
2004/5/2 8:45,0,0,0.0458,0.0109,0.4332,0.4494,0.4082,0.7897,0
2004/5/2 9:00,0,0,0.0235,0.0108,0.4031,0.4648,0.2517,0.6052,0
2004/5/2 9:15,0,0,0.0145,0.0109,0.7154,0.6715,0.2519,0.4936,0
2004/5/2 9:30,0,0,0,0.0108,0.3475,0.174,0.4124,0.5558,0
2004/5/2 9:45,0,0,0,0.0109,0.6216,0.1745,0.16,0.4542,0
2004/5/2 10:00,0,0,0,0.0109,0.4097,0.174,0.2455,0.4375,0
2004/5/2 10:15,0,0,0,0.0109,0.4706,0.1738,0.2475,0.4293,0
2004/5/2 10:30,0,0,0,0.0108,0.7044,0.1744,0.249,0.4311,0
2004/5/2 10:45,0,0,0,0.0109,0.4575,0.1738,0.2458,0.4496,0
2004/5/2 11:00,0,0,0,0.0109,0.8103,0.1737,0.1577,0.4389,0
2004/5/2 11:15,0,0,0,0.0109,1.0816,0.1744,0.247,0.4614,0
2004/5/2 11:30,0,0,0,0.0111,0.5318,0.1742,0.2431,0.4343,0
2004/5/2 11:45,0,0,0,0.0109,0.8198,0.1732,0.2478,0.4578,0
2004/5/2 12:00,0,0,0,0.0109,0.5964,0.2013,0.1568,0.4592,0
2004/5/2 12:15,0,0,0,0.0109,0.5744,0.1731,0.2403,0.4618,0
2004/5/2 12:30,0,0,0,0.0109,0.6242,0.1734,0.2424,0.4486,0
2004/5/2 12:45,0,0,0,0.0109,0.3423,0.174,0.2441,0.4595,0
2004/5/2 13:00,0,0,0,0.0109,0.6104,0.1729,0.246,0.4182,0
2004/5/2 13:15,0,0,0,0.0108,0.6723,0.1728,0.156,0.4524,0
2004/5/2 13:30,0,0,0,0.0111,0.2939,0.174,0.2411,0.4491,0
2004/5/2 13:45,0,0,0,0.0109,0.5789,0.1741,0.2436,0.4532,0
2004/5/2 14:00,0,0,0,0.0109,0.5226,0.1744,0.1539,0.4673,0
2004/5/2 14:15,0,0,0,0.0109,0.4044,0.1745,0.3269,0.418,0
2004/5/2 14:30,0,0,0,0.0108,0.7017,0.1721,0.1531,0.4368,0
2004/5/2 14:45,0,0,0,0.0108,0.5717,0.1727,0.1538,0.444,0
2004/5/2 15:00,0,0,0,0.0108,0.3696,0.1719,0.3262,0.4205,0
2004/5/2 15:15,0,0,0,0.0108,0.5808,0.1725,0.1519,0.4383,0
2004/5/2 15:30,0,0,0,0.0108,0.5342,0.1711,0.1534,0.4406,0
2004/5/2 15:45,0,0,0,0.0108,0.4896,0.1718,0.3305,0.4365,0
2004/5/2 16:00,0,0,0,0.0107,0.6957,0.1718,0.1524,0.4283,0
2004/5/2 16:15,0,0,0,0.0108,0.3944,0.1711,0.2385,0.4546,0
2004/5/2 16:30,0,0,0,0.0107,0.4215,0.2687,0.2383,0.5011,0
2004/5/2 16:45,0,0,0,0.0107,0.7082,0.4091,0.1528,0.7243,0
2004/5/2 17:00,0,0,0.0341,0.0108,0.3898,0.4157,0.2475,0.5144,0
2004/5/2 17:15,0,0,0.6405,0.0109,0.6229,0.4645,0.2359,0.5285,0
2004/5/2 17:30,0,0,0.5941,0.0107,0.6044,0.3889,0.1531,0.5093,0
2004/5/2 17:45,0,0,0.5563,0.0108,0.2111,0.2578,0.2462,0.4468,0
2004/5/2 18:00,0,0,0.7965,0.0109,0.7222,0.2303,0.2376,0.4512,0
2004/5/2 18:15,0,0,1.0508,0.0108,0.6081,0.2272,0.1591,0.6774,0
2004/5/2 18:30,0,0,1.0123,0.0109,0.4139,0.4507,0.3331,0.7366,0
2004/5/2 18:45,0,0,1.1958,0.0108,0.7655,0.4704,0.163,0.7331,0
2004/5/2 19:00,0,0,1.2416,0.0108,0.6094,0.4847,0.2521,0.6581,0
2004/5/2 19:15,0,0,1.2383,0.0108,0.4467,0.4592,0.2468,0.503,0
2004/5/2 19:30,0,0,1.2444,0.0108,0.5941,0.4416,0.164,0.5136,0
2004/5/2 19:45,0,0,1.2249,0.0108,0.4546,0.4837,0.2555,0.5059,0
2004/5/2 20:00,0,0,1.2213,0.0108,0.593,0.4733,0.2478,0.4893,0
2004/5/2 20:15,0,0,1.218,0.0108,0.6885,0.4749,0.1918,0.4978,0
2004/5/2 20:30,0,0,1.2188,0.0108,0.2483,0.4818,0.2241,0.5446,0
2004/5/2 20:45,0,0,1.2133,0.0107,0.5759,0.4776,0.2514,0.5088,0
2004/5/2 21:00,0,0,1.2868,0.0107,0.7076,0.4848,0.2519,0.5085,0
2004/5/2 21:15,0,0,1.2328,0.0109,0.4092,0.4954,0.1647,0.7042,0
2004/5/2 21:30,0,0,1.211,0.0108,0.7731,0.4987,0.3432,0.7754,0
2004/5/2 21:45,0,0,1.0934,0.0108,0.8893,0.4915,0.1649,0.6553,0
2004/5/2 22:00,0,0,1.0865,0.0109,0.8315,0.4892,0.25,0.5544,0
2004/5/2 22:15,0,0,0.7819,0.0108,0.8156,0.48,0.2494,0.57,0
2004/5/2 22:30,0,0,1.391,0.0109,0.6222,0.4812,0.1585,0.5376,0
2004/5/2 22:45,0,0,1.3188,0.0111,0.5867,0.4836,0.3642,0.5298,0
2004/5/2 23:00,0,0,1.4273,0.0109,0.7402,0.4759,0.1577,0.6532,0
2004/5/2 23:15,0,0,0.0677,0.0108,0.3462,0.2085,0.2498,0.5806,0
2004/5/2 23:30,0,0,0,0.0108,0.4994,0.1734,0.2399,0.5056,0
2004/5/2 23:45,0,0,0,0.0109,0.6903,0.1729,0.1588,0.4991,0
2004/5/3 0:00,0,0,0,0.0109,0.3149,0.1744,0.2447,0.4944,0
2004/5/3 0:15,0,0,0,0.0109,0.717,0.1742,0.2458,0.5144,0
2004/5/3 0:30,0,0,0,0.0111,0.5871,0.1752,0.2455,0.4997,0
2004/5/3 0:45,0,0,0,0.0108,0.5586,0.1738,0.1591,0.5093,0
2004/5/3 1:00,0,0,0,0.0108,0.5888,0.1734,0.3364,0.5139,0
2004/5/3 1:15,0,0,0,0.0109,0.3159,0.174,0.1577,0.4991,0
2004/5/3 1:30,0,0,0,0.0109,0.625,0.1745,0.2449,0.468,0
2004/5/3 1:45,0,0,0,0.0108,0.6348,0.1747,0.2477,0.492,0
2004/5/3 2:00,0,0,0,0.0111,0.3509,0.1752,0.1571,0.4782,0
2004/5/3 2:15,0,0,0,0.0108,0.5422,0.1758,0.2445,0.5328,0
2004/5/3 2:30,0,0,0,0.0108,0.3862,0.1731,0.2493,0.5113,0
2004/5/3 2:45,0,0,0,0.0108,0.5914,0.1738,0.1578,0.5031,0
2004/5/3 3:00,0,0,0,0.0108,0.6309,0.1732,0.3285,0.473,0
2004/5/3 3:15,0,0,0,0.0109,0.283,0.1734,0.159,0.4994,0
2004/5/3 3:30,0,0,0,0.0107,0.5917,0.1727,0.1587,0.4815,0
2004/5/3 3:45,0,0,0,0.0108,0.4704,0.1718,0.33,0.503,0
2004/5/3 4:00,0,0,0,0.0107,0.555,0.1719,0.1577,0.4668,0
2004/5/3 4:15,0,0,0,0.0107,0.5501,0.1709,0.3302,0.4909,0
2004/5/3 4:30,0,0,0,0.0107,0.2521,0.1714,0.1588,0.4867,0
2004/5/3 4:45,0,0,0,0.0108,0.7127,0.1708,0.1598,0.4869,0
2004/5/3 5:00,0,0,0,0.0107,0.3984,0.1716,0.3273,0.5142,0
2004/5/3 5:15,0,0,0,0.0107,0.5164,0.1706,0.1591,0.485,0
2004/5/3 5:30,0,0,0,0.0108,0.444,0.1711,0.2511,0.5053,0
2004/5/3 5:45,0,0,0,0.0107,0.4635,0.1705,0.2405,0.4815,0
2004/5/3 6:00,0,0,0,0.0107,0.6902,0.1702,0.1607,0.4831,0
2004/5/3 6:15,0,0,0,0.0107,0.2233,0.1705,0.3295,0.4994,0
2004/5/3 6:30,0,0,0,0.0107,0.5894,0.1701,0.1598,0.4804,0
2004/5/3 6:45,0,0,0,0.0108,0.4956,0.1722,0.2432,0.472,0
2004/5/3 7:00,0,0,0,0.0107,0.5224,0.2095,0.2449,0.5047,0
2004/5/3 7:15,0,0,0.4003,0.0108,0.4609,0.3717,0.175,0.4945,0
2004/5/3 7:30,0,0,0.5532,0.0107,0.3442,0.4049,0.427,1.3375,0
2004/5/3 7:45,0,0,0.4782,0.6186,0.7337,0.3997,0.2428,0.8929,0
2004/5/3 8:00,0,0,0.4689,0.7307,0.4409,0.4068,0.2601,0.6915,0
2004/5/3 8:15,0,0,0.4108,0.0108,0.6712,0.399,0.2488,0.5247,0
2004/5/3 8:30,0,0,0.5723,0.0108,0.7109,0.5131,0.2527,0.5039,0
2004/5/3 8:45,0,0,0.4265,0.0108,0.8784,0.976,0.3017,0.5253,0
2004/5/3 9:00,0,0,0.4031,0.0107,0.9075,0.9503,0.1617,0.5407,0
2004/5/3 9:15,0,0,0.4415,0.0108,0.4687,0.9516,0.3354,0.5054,0
2004/5/3 9:30,0,0,1.6583,0.0109,0.7841,0.9566,0.1627,0.5077,0
2004/5/3 9:45,0,0,0.1048,0.0109,0.581,0.8994,0.357,0.7616,0
2004/5/3 10:00,0,0,0.0003,0.0108,0.5581,0.4408,0.1624,1.0201,0
2004/5/3 10:15,0,0,0.0003,0.0108,0.5181,0.4291,0.3401,1.1506,0
2004/5/3 10:30,0,0,0,0.0109,0.2726,0.4422,0.1624,1.0764,0
2004/5/3 10:45,0,0,0,0.0108,0.7024,0.4254,0.3388,1.1301,0
2004/5/3 11:00,0,0,0,0.0108,0.4535,1.2433,0.1617,1.0993,0
2004/5/3 11:15,0,0,0,0.0109,0.4496,0.9572,0.1621,0.9701,0
2004/5/3 11:30,0,0,0,0.0108,0.5047,0.9213,0.3374,1.005,0
2004/5/3 11:45,0,0,0,0.0108,0.3804,0.534,0.1629,0.8045,0
2004/5/3 12:00,0,0,0,0.0109,0.708,0.7043,0.3449,0.8833,0
2004/5/3 12:15,0,0,0,0.0108,0.426,0.6719,0.1722,0.6569,0
2004/5/3 12:30,0,0,0,0.0109,0.3953,0.6731,0.1718,0.6684,0
2004/5/3 12:45,0,0,0,0.0109,0.6296,0.6716,0.3423,0.6723,0
2004/5/3 13:00,0,0,0,0.0108,0.4091,0.2432,0.1702,0.5232,0
2004/5/3 13:15,0,0,0,0.0109,0.7135,0.2189,0.3443,0.6402,0
2004/5/3 13:30,0,0,0,0.0109,0.4689,0.4013,0.1705,0.4903,0
2004/5/3 13:45,0,0,0,0.0109,0.6526,0.4046,0.1719,0.5292,0
2004/5/3 14:00,0,0,0,0.0109,0.462,0.402,0.3488,0.6395,0
2004/5/3 14:15,0,0,0,0.0109,0.3416,0.4019,0.1706,0.6991,0
2004/5/3 14:30,0,0,0,0.0109,0.7157,0.399,0.2598,0.8438,0
2004/5/3 14:45,0,0,0,0.0109,0.4647,0.4061,0.2547,0.541,0
2004/5/3 15:00,0,0,0.1911,0.0109,0.4573,0.4728,0.1705,0.5256,0
2004/5/3 15:15,0,0,0.3694,0.0111,0.592,0.6551,0.3489,0.5478,0
2004/5/3 15:30,0,0,0.0288,0.0108,0.3453,0.652,0.1696,0.5098,0
2004/5/3 15:45,0,0,0.0251,0.0108,0.6909,0.6467,0.3324,0.4955,0
2004/5/3 16:00,0,0,0,0.0108,0.4895,0.6566,0.1993,0.5322,0
2004/5/3 16:15,0,0,0,0.0108,0.326,0.6103,0.1693,0.5102,0
2004/5/3 16:30,0,0,0,0.0108,0.7129,0.6191,0.3434,0.5223,0
2004/5/3 16:45,0,0,0,0.0108,0.4177,0.644,0.1682,0.5124,0
2004/5/3 17:00,0,0,0,0.0107,0.4797,0.409,0.3459,0.5082,0
2004/5/3 17:15,0,0,0.0027,0.0108,0.5469,0.2075,0.1653,0.5301,0
2004/5/3 17:30,0,0,0.0003,0.0108,0.3646,0.3851,0.1663,0.4991,0
2004/5/3 17:45,0,0,0,0.3325,0.6592,0.4391,0.3315,0.4733,0
2004/5/3 18:00,0,0,0.2621,1.061,0.5685,0.6479,0.1656,0.5793,0
2004/5/3 18:15,0,0,0.42,0.0111,0.1908,0.6535,0.2566,0.5986,0
2004/5/3 18:30,0,0,0.4098,0.0108,0.7235,0.5054,0.2493,0.6225,0
2004/5/3 18:45,0,0,0.4075,0.0109,0.5458,0.4002,0.1642,0.5278,0
2004/5/3 19:00,0,0,0.6375,0.0108,0.5318,0.56,0.3672,0.81,0
2004/5/3 19:15,0,0,0.6777,0.0108,0.8253,0.1757,0.1643,0.5455,0
2004/5/3 19:30,0,0,0.6836,0.0108,0.8634,0.2048,0.2526,0.5193,0
2004/5/3 19:45,0,0,0.6816,0.0108,0.7929,0.2556,0.2546,0.516,0
2004/5/3 20:00,0,0,0.5122,0.0108,0.8145,0.3927,0.1652,0.7623,0
2004/5/3 20:15,0,0,0.3982,0.0108,0.4301,0.4671,0.3378,0.7996,0
2004/5/3 20:30,0,0,0.8667,0.0107,0.7224,0.4632,0.1636,0.5373,0
2004/5/3 20:45,0,0,0.9022,0.0109,0.6111,0.47,0.2549,0.5088,0
2004/5/3 21:00,0,0,0.5016,0.0109,0.2242,0.4581,0.2516,0.4984,0
2004/5/3 21:15,0,0,0.5108,0.0109,0.7183,0.4072,0.1642,0.5076,0
2004/5/3 21:30,0,0,0.5622,0.0111,0.5367,0.4064,0.25,0.4932,0
2004/5/3 21:45,0,0,0.5052,0.0109,0.4676,1.0843,0.2611,0.4733,0
2004/5/3 22:00,0,0,0.4928,0.0111,0.7232,0.7978,0.2624,0.5191,0
2004/5/3 22:15,0,0,0.4922,0.0111,0.5587,0.7872,0.2592,0.5021,0
2004/5/3 22:30,0,0,0.4869,0.0109,0.455,0.6931,0.1757,0.5026,0
2004/5/3 22:45,0,0,0.4883,0.0109,0.6016,0.7413,0.2657,0.5132,0
2004/5/3 23:00,0,0,0.4915,0.0111,0.3944,0.7659,0.2642,0.4889,0
2004/5/3 23:15,0,0,0.4897,0.0109,0.6474,0.6929,0.1757,0.5409,0
2004/5/3 23:30,0,0,1.0204,0.0109,0.6559,0.7803,0.2612,0.5206,0
2004/5/3 23:45,0,0,0.5089,0.0108,0.2087,0.672,0.2605,0.5787,0
2004/5/4 0:00,0,0,0.395,0.0109,0.6133,0.7762,0.2604,0.5417,0
2004/5/4 0:15,0,0,0.4841,0.0109,0.6646,0.7498,0.2611,0.5787,0
2004/5/4 0:30,0,0,0.7438,0.0109,0.3845,0.762,0.33,0.5197,0
2004/5/4 0:45,0,0,0.7697,0.0111,0.7121,0.6392,0.1668,0.5234,0
2004/5/4 1:00,0,0,0.3478,0.0109,0.432,0.1781,0.3469,0.6116,0
2004/5/4 1:15,0,0,0.0177,0.0109,0.4092,0.1776,0.167,0.5527,0
2004/5/4 1:30,0,0,0.0102,0.0109,0.7201,0.1776,0.1688,0.5082,0
2004/5/4 1:45,0,0,0,0.0109,0.5164,0.1776,0.3427,0.4798,0
2004/5/4 2:00,0,0,0,0.0109,0.4841,0.1763,0.1675,0.4775,0
2004/5/4 2:15,0,0,0,0.0109,0.5236,0.1774,0.2588,0.5316,0
2004/5/4 2:30,0,0,0,0.0109,0.4566,0.1777,0.2516,0.492,0
2004/5/4 2:45,0,0,0,0.0111,0.5597,0.1776,0.1685,0.4916,0
2004/5/4 3:00,0,0,0,0.0109,0.6941,0.1773,0.3384,0.482,0
2004/5/4 3:15,0,0,0,0.0108,0.2416,0.1754,0.1644,0.4889,0
2004/5/4 3:30,0,0,0,0.0108,0.6006,0.1761,0.1675,0.4961,0
2004/5/4 3:45,0,0,0,0.0108,0.6692,0.1752,0.3398,0.4791,0
2004/5/4 4:00,0,0,0,0.0108,0.3216,0.1761,0.167,0.4952,0
2004/5/4 4:15,0,0,0,0.0109,0.654,0.1758,0.2553,0.4824,0
2004/5/4 4:30,0,0,0,0.0108,0.4199,0.1761,0.248,0.5079,0
2004/5/4 4:45,0,0,0,0.0109,0.4236,0.1761,0.1672,0.4828,0
2004/5/4 5:00,0,0,0,0.0108,0.6929,0.1738,0.2592,0.4864,0
2004/5/4 5:15,0,0,0,0.0107,0.5207,0.1734,0.2472,0.4912,0
2004/5/4 5:30,0,0,0,0.0107,0.5374,0.1732,0.1668,0.4723,0
2004/5/4 5:45,0,0,0,0.0108,1.0002,0.1737,0.3355,0.4823,0
2004/5/4 6:00,0,0,0,0.0107,0.8276,0.1725,0.1668,0.4841,0
2004/5/4 6:15,0,0,0,0.0107,0.6631,0.1716,0.1669,0.4814,0
2004/5/4 6:30,0,0,0,0.0107,0.7867,0.1714,0.3334,0.4656,0
2004/5/4 6:45,0,0,0,0.0108,0.4188,0.1734,0.1683,0.4789,0
2004/5/4 7:00,0,0,0,0.0108,0.6942,0.2991,0.167,0.4984,0
2004/5/4 7:15,0,0,0.0804,0.0108,0.4692,0.4013,0.3286,0.5138,0
2004/5/4 7:30,0,0,0,0.0107,0.3486,0.2442,0.1528,0.4732,0
2004/5/4 7:45,0,0,0.0059,0.0107,0.7044,0.1719,0.2648,0.4402,0
2004/5/4 8:00,0,0,0.0012,0.5898,0.577,0.1741,0.1542,1.4712,0
2004/5/4 8:15,0,0,0.0177,0.0109,0.3987,0.342,0.7272,0.7001,0
2004/5/4 8:30,0,0,0,0.0108,0.8084,0.4026,0.2307,0.7317,0
2004/5/4 8:45,0,0,0.0206,0.0108,0.7393,0.4059,0.1502,0.5128,0
2004/5/4 9:00,0,0,0.0068,0.0108,0.3511,0.4032,0.4798,0.492,0
2004/5/4 9:15,0,0,0.0291,0.0107,0.5424,0.4058,0.6142,0.5256,0
2004/5/4 9:30,0,0,0.6782,0.0108,0.7897,0.4179,0.239,0.4686,0
2004/5/4 9:45,0,0,0.2167,0.0108,0.5126,0.7161,0.2261,0.5283,0
2004/5/4 10:00,0,0,0.1009,0.0107,0.359,0.5106,0.2534,0.4428,0
2004/5/4 10:15,0,0,0,0.0107,0.7066,0.1724,0.3227,0.4205,0
2004/5/4 10:30,0,0,0,0.0107,0.5746,0.1729,0.1571,0.4216,0
2004/5/4 10:45,0,0,0,0.0107,0.4386,0.1725,0.231,0.4212,0
2004/5/4 11:00,0,0,0,0.0109,0.647,0.1745,0.2421,0.4726,0
2004/5/4 11:15,0,0,0,0.0109,0.4779,0.1773,0.2226,0.4503,0
2004/5/4 11:30,0,0,0,0.0111,0.3766,0.1771,0.2429,0.4314,0
2004/5/4 11:45,0,0,0,0.0109,0.705,0.1761,0.2291,0.4614,0
2004/5/4 12:00,0,0,0,0.0109,0.6608,0.2028,0.1585,0.4412,0
2004/5/4 12:15,0,0,0.5878,0.0109,0.2704,0.1758,0.2591,2.121,0
2004/5/4 12:30,0,0,0.8623,0.0109,0.537,0.5154,0.2244,0.4298,0
2004/5/4 12:45,0,0,0,0.4304,0.721,0.6729,0.2452,0.491,0
2004/5/4 13:00,0,0,0,0.0109,0.6343,0.4033,0.2274,0.5331,0
2004/5/4 13:15,0,0,0,0.0109,0.3763,0.4041,0.1528,0.5229,0
2004/5/4 13:30,0,0,0,0.0109,0.6287,0.4035,0.2402,0.5381,0
2004/5/4 13:45,0,0,0,0.0109,0.5604,0.3933,0.2256,0.5185,0
2004/5/4 14:00,0,0,0,0.0109,0.5645,0.3774,0.2439,0.5177,0
2004/5/4 14:15,0,0,0,0.0109,0.4664,0.3856,0.1529,0.5322,0
2004/5/4 14:30,0,0,0,0.0108,0.7086,0.3776,0.1528,0.5354,0
2004/5/4 14:45,0,0,0,0.0109,0.6592,0.3872,0.3158,0.5355,0
2004/5/4 15:00,0,0,0,0.0111,0.4019,0.3842,0.1521,0.5237,0
2004/5/4 15:15,0,0,0,0.0109,0.5062,0.3861,0.1548,0.5204,0
2004/5/4 15:30,0,0,0,0.0109,0.7008,0.3764,0.2326,0.5312,0
2004/5/4 15:45,0,0,0,0.0109,0.7171,0.3695,0.2536,0.5354,0
2004/5/4 16:00,0,0,0,0.0111,0.6623,0.3992,0.1603,0.5224,0
2004/5/4 16:15,0,0,0,0.0109,0.7312,0.3974,0.2301,0.5151,0
2004/5/4 16:30,0,0,0,0.0109,1.0796,0.5803,0.2493,0.5424,0
2004/5/4 16:45,0,0,0,0.0109,0.8209,0.6412,0.1607,0.5206,0
2004/5/4 17:00,0,0,0.2323,0.0108,0.7966,0.4918,0.2267,0.8669,0
2004/5/4 17:15,0,0,0.6283,0.0109,0.4769,0.2285,0.2349,2.3975,0
2004/5/4 17:30,0,0,0.6143,0.0107,0.669,0.2278,0.2222,1.0948,0
2004/5/4 17:45,0,0,0.7278,0.0108,0.7893,0.2504,0.1482,0.5918,0
2004/5/4 18:00,0,0,0.3983,0.0108,0.8695,0.396,0.239,0.5524,0
2004/5/4 18:15,0,0,0.5702,0.0107,0.6813,0.2749,0.2193,0.5057,0
2004/5/4 18:30,0,0,0.6034,0.0108,0.3004,0.174,0.1418,0.4519,0
2004/5/4 18:45,0,0,0.6018,0.0108,0.6758,0.1735,0.2436,0.4526,0
2004/5/4 19:00,0,0,0.6013,0.0108,0.7125,0.2117,0.2128,0.4586,0
2004/5/4 19:15,0,0,0.6022,0.0108,0.6673,0.1748,0.2324,0.5168,0
2004/5/4 19:30,0,0,0.8002,0.0109,0.3125,0.3387,0.1417,0.6271,0
2004/5/4 19:45,0,0,0.9121,0.708,0.8505,0.4013,0.212,0.8336,0
2004/5/4 20:00,0,0,0.8791,0.0109,0.9354,0.4028,0.2298,0.7646,0
2004/5/4 20:15,0,0,0.8654,0.0109,0.8199,0.4002,0.1423,0.756,0
2004/5/4 20:30,0,0,0.8528,0.0108,0.3668,0.3989,0.2071,0.7606,0
2004/5/4 20:45,0,0,0.8473,0.0109,0.5286,0.4015,0.2261,0.7403,0
2004/5/4 21:00,0,0,0.8427,0.0109,0.7357,0.3997,0.1426,0.7504,0
2004/5/4 21:15,0,0,0.8385,0.0109,0.6905,0.4,0.2066,0.7595,0
2004/5/4 21:30,0,0,0.8372,0.0109,0.6296,0.4012,0.2282,0.7531,0
2004/5/4 21:45,0,0,0.8336,0.0109,0.4452,0.4026,0.1401,0.5185,0
2004/5/4 22:00,0,0,0.8492,0.0111,0.812,0.3989,0.2112,0.5135,0
2004/5/4 22:15,0,0,0.6166,0.0109,0.7583,0.4022,0.2282,0.5419,0
2004/5/4 22:30,0,0,0.6034,0.0111,0.8113,0.3999,0.1413,0.5507,0
2004/5/4 22:45,0,0,0.6028,0.0108,0.6291,0.4031,0.2097,0.5334,0
2004/5/4 23:00,0,0,1.1732,0.0111,0.3606,0.402,0.1872,0.5424,0
2004/5/4 23:15,0,0,0.8757,0.0109,0.6955,0.402,0.1803,0.6424,0
2004/5/4 23:30,0,0,0.7875,0.0111,0.722,0.4035,0.1416,0.5779,0
2004/5/4 23:45,0,0,0.741,0.0109,0.6735,0.4036,0.2114,0.5653,0
2004/5/5 0:00,0,0,0.7265,0.0109,0.3185,0.3023,0.2282,0.562,0
2004/5/5 0:15,0,0,1.3791,0.0109,0.5692,0.176,0.1404,0.4745,0
2004/5/5 0:30,0,0,1.2316,0.0109,0.6775,0.1773,0.2052,0.4432,0
2004/5/5 0:45,0,0,1.366,0.0109,0.6996,0.3321,0.2438,0.5039,0
2004/5/5 1:00,0,0,0.2467,0.0111,0.3792,0.268,0.1423,0.484,0
2004/5/5 1:15,0,0,0,0.0109,0.5998,0.1787,0.2976,0.5247,0
2004/5/5 1:30,0,0,0,0.0109,0.7707,0.1765,0.1401,0.4984,0
2004/5/5 1:45,0,0,0,0.0109,0.7808,0.1764,0.1418,0.4988,0
2004/5/5 2:00,0,0,0,0.0109,0.4548,0.1764,0.2915,0.4969,0
2004/5/5 2:15,0,0,0,0.0109,0.9657,0.1771,0.1421,0.4848,0